Shannon, Ireland

1:22 AM IST on July 28, 2017 (GMT +0100)
Shannon

Weather History for EINN - February, 2013

Change the Weather History Date:

Friday, February 1, 2013

  Actual Average Record
Temperature  
Mean Temperature 44 °F -  
Max Temperature 48 °F 47 °F 54 °F (2016)
Min Temperature 39 °F 37 °F 32 °F (1998)
Degree Days  
Heating Degree Days 22    
Moisture  
Dew Point 38 °F    
Average Humidity 83    
Maximum Humidity 93    
Minimum Humidity 66    
Precipitation  
Precipitation 0.04 in 0.09 in - ()
Sea Level Pressure  
Sea Level Pressure 29.71 in    
Wind  
Wind Speed 11 mph ()    
Max Wind Speed 23 mph    
Max Gust Speed 37 mph    
Visibility 6.8 miles    
Events Rain    
Averages and records for this station are not official NWS values.
T = Trace of Precipitation, MM = Missing Value Source: Averaged Metar Reports

Daily Weather History Graph

Daily Weather History Graph

Search for Another Location

Airport or City:

Trip Planner

Search our weather history database for the weather conditions in past years. The results will help you decide how hot, cold, wet, or windy it might be!

Date:

Astronomy

Feb. 01, 2013 Rise Set
Actual Time 8:17 AM GMT 5:21 PM GMT
Civil Twilight 7:40 AM GMT 5:58 PM GMT
Nautical Twilight 6:59 AM GMT 6:40 PM GMT
Astronomical Twilight 6:19 AM GMT 7:20 PM GMT
Moon No Moon Rise 9:52 AM GMT (2/1)
Length of Visible Light 10h 18m
Length of Day
9h 03m
Waning Gibbous, 72% of the Moon is Illuminated
Feb 1
Waning Gibbous
Feb 3
Last Quarter
Feb 10
New
Feb 17
First Quarter
Feb 25
Full

Hourly Weather History & Observations

Time (GMT) Temp. Windchill Dew Point Humidity Pressure Visibility Wind Dir Wind Speed Gust Speed Precip Events Conditions
12:00 AM 44 °F - 39 °F 76% 29.75 in 12 mi WSW 6.7 mph - -   Partly Cloudy
12:00 AM 44.6 °F 40.7 °F 39.2 °F 81% 29.74 in 6.2 mi WSW 6.9 mph - N/A   Mostly Cloudy
12:30 AM 42.8 °F 38.6 °F 39.2 °F 87% 29.71 in 6.2 mi SW 6.9 mph - N/A   Overcast
1:00 AM 44.6 °F 38.8 °F 41.0 °F 87% 29.71 in 6.2 mi SW 11.5 mph - N/A   Mostly Cloudy
1:30 AM 42.8 °F 35.8 °F 37.4 °F 81% 29.71 in 6.2 mi WSW 13.8 mph - N/A Rain Light Rain
2:00 AM 42.8 °F 36.2 °F 37.4 °F 81% 29.68 in 6.2 mi SW 12.7 mph - N/A   Mostly Cloudy
2:30 AM 42.8 °F 35.8 °F 37.4 °F 81% 29.68 in 6.2 mi SW 13.8 mph - N/A   Mostly Cloudy
3:00 AM 41.0 °F 34.7 °F 37.4 °F 87% 29.68 in 6.2 mi SSW 10.4 mph - N/A   Mostly Cloudy
3:30 AM 41.0 °F 35.2 °F 37.4 °F 87% 29.65 in 6.2 mi SSW 9.2 mph - N/A   Partly Cloudy
4:00 AM 41.0 °F 34.7 °F 37.4 °F 87% 29.65 in 6.2 mi SW 10.4 mph - N/A   Partly Cloudy
4:30 AM 41.0 °F 34.3 °F 37.4 °F 87% 29.62 in 6.2 mi SW 11.5 mph - N/A   Partly Cloudy
5:00 AM 41.0 °F 35.2 °F 37.4 °F 87% 29.62 in 6.2 mi SW 9.2 mph - N/A   Partly Cloudy
5:30 AM 41.0 °F 35.8 °F 37.4 °F 87% 29.62 in 6.2 mi SW 8.1 mph - N/A   Partly Cloudy
6:00 AM 41 °F - 38 °F 83% 29.63 in 12 mi SW 8.9 mph - -   Partly Cloudy
6:00 AM 41.0 °F 35.2 °F 37.4 °F 87% 29.62 in 6.2 mi SW 9.2 mph - N/A   Partly Cloudy
6:30 AM 41.0 °F 33.9 °F 37.4 °F 87% 29.62 in 6.2 mi WSW 12.7 mph - N/A   Partly Cloudy
7:00 AM 41.0 °F 33.5 °F 37.4 °F 87% 29.62 in 6.2 mi WSW 13.8 mph - N/A   Scattered Clouds
7:30 AM 42.8 °F 36.2 °F 37.4 °F 81% 29.62 in 6.2 mi WSW 12.7 mph - N/A   Scattered Clouds
8:00 AM 42.8 °F 36.6 °F 37.4 °F 81% 29.62 in 6.2 mi WSW 11.5 mph - N/A   Partly Cloudy
8:30 AM 42.8 °F 35.4 °F 39.2 °F 87% 29.62 in 6.2 mi WSW 15.0 mph - N/A   Scattered Clouds
9:00 AM 42.8 °F 34.8 °F 39.2 °F 87% 29.59 in 6.2 mi WSW 17.3 mph - N/A Rain Light Rain Showers
9:30 AM 42.8 °F 34.0 °F 39.2 °F 87% 29.59 in 5.0 mi West 20.7 mph - N/A Rain Light Rain Showers
10:00 AM 42.8 °F 34.3 °F 41.0 °F 93% 29.59 in 6.2 mi West 19.6 mph - N/A   Partly Cloudy
10:30 AM 44.6 °F 37.2 °F 41.0 °F 87% 29.59 in 6.2 mi West 17.3 mph - N/A   Mostly Cloudy
11:00 AM 46.4 °F 39.2 °F 41.0 °F 81% 29.62 in 6.2 mi West 18.4 mph - N/A   Scattered Clouds
11:30 AM 46.4 °F 38.3 °F 41.0 °F 81% 29.62 in 6.2 mi WNW 23.0 mph 36.8 mph N/A Rain Light Rain Showers
12:00 PM 45 °F - 40 °F 77% 29.63 in 16 mi WNW 17.9 mph - - Rain Light Rain Showers
12:00 PM 44.6 °F 36.9 °F 41.0 °F 87% 29.62 in 6.2 mi WNW 18.4 mph - N/A   Scattered Clouds
12:30 PM 48.2 °F - 41.0 °F 76% 29.62 in 6.2 mi WNW 19.6 mph - N/A   Mostly Cloudy
1:00 PM 48.2 °F - 39.2 °F 71% 29.62 in 6.2 mi NW 23.0 mph - N/A   Scattered Clouds
1:30 PM 48.2 °F - 41.0 °F 76% 29.65 in 6.2 mi NW 19.6 mph - N/A   Scattered Clouds
2:00 PM 44.6 °F 36.1 °F 39.2 °F 81% 29.65 in 6.2 mi NNW 21.9 mph - N/A   Scattered Clouds
2:30 PM 48.2 °F - 39.2 °F 71% 29.65 in 6.2 mi NNW 19.6 mph - N/A   Partly Cloudy
3:00 PM 48.2 °F - 37.4 °F 66% 29.68 in 6.2 mi NNW 19.6 mph - N/A   Partly Cloudy
3:30 PM 46.4 °F 40.1 °F 37.4 °F 71% 29.68 in 6.2 mi NW 15.0 mph - N/A   Partly Cloudy
4:00 PM 46.4 °F 39.5 °F 37.4 °F 71% 29.71 in 6.2 mi NW 17.3 mph - N/A   Mostly Cloudy
4:30 PM 46.4 °F 41.9 °F 39.2 °F 76% 29.74 in 6.2 mi NW 9.2 mph - N/A   Mostly Cloudy
5:00 PM 44.6 °F 38.8 °F 37.4 °F 76% 29.77 in 6.2 mi NW 11.5 mph - N/A   Mostly Cloudy
5:30 PM 42.8 °F 36.2 °F 37.4 °F 81% 29.77 in 6.2 mi NW 12.7 mph - N/A   Partly Cloudy
6:00 PM 43 °F - 38 °F 76% 29.81 in 16 mi NW 11.2 mph - - Rain Light Rain Showers
6:00 PM 42.8 °F 36.6 °F 37.4 °F 81% 29.80 in 6.2 mi NW 11.5 mph - N/A   Mostly Cloudy
6:30 PM 42.8 °F 38.0 °F 37.4 °F 81% 29.83 in 6.2 mi NW 8.1 mph - N/A   Partly Cloudy
7:00 PM 42.8 °F 39.3 °F 39.2 °F 87% 29.83 in 6.2 mi WNW 5.8 mph - N/A   Mostly Cloudy
7:30 PM 41.0 °F - 37.4 °F 87% 29.86 in 6.2 mi NNW 1.2 mph - N/A   Mostly Cloudy
8:00 PM 41.0 °F 38.0 °F 37.4 °F 87% 29.86 in 6.2 mi WSW 4.6 mph - N/A   Mostly Cloudy
8:30 PM 41.0 °F 37.1 °F 37.4 °F 87% 29.89 in 6.2 mi West 5.8 mph - N/A   Scattered Clouds
9:00 PM 39.2 °F 37.0 °F 37.4 °F 93% 29.89 in 6.2 mi WNW 3.5 mph - N/A   Scattered Clouds
9:30 PM 39.2 °F 35.9 °F 35.6 °F 87% 29.92 in 6.2 mi West 4.6 mph - N/A   Partly Cloudy
10:00 PM 39.2 °F 35.9 °F 35.6 °F 87% 29.92 in 6.2 mi West 4.6 mph - N/A   Partly Cloudy
10:30 PM 39.2 °F 37.0 °F 35.6 °F 87% 29.95 in 6.2 mi WNW 3.5 mph - N/A   Scattered Clouds
11:00 PM 39.2 °F - 37.4 °F 93% 29.95 in 6.2 mi NW 2.3 mph - N/A   Scattered Clouds
11:30 PM 39.2 °F 34.2 °F 37.4 °F 93% 29.98 in 6.2 mi WNW 6.9 mph - N/A   Scattered Clouds